Regional Weather Roundup
Issued by NWS Newport/Morehead, NC

Current Version | Previous Version | Text Only | Print | Product List | Glossary On
Versions: 1 2 3 4 5 6 7 8 9 10 11 12 13 14 15 16 17 18 19 20 21 22 23 24 25 26 27 28 29 30 31 32 33 34 35 36 37 38 39 40 41 42 43 44 45 46 47 48 49 50
000 ASUS42 KMHX 260413 RWRMHX WEATHER ROUNDUP FOR EASTERN NORTH CAROLINA NATIONAL WEATHER SERVICE NEWPORT/MOREHEAD CITY NC 1200 AM EDT SUN MAR 26 2017 NOTE: "FAIR" INDICATES FEW OR NO CLOUDS BELOW 12,000 FEET WITH NO SIGNIFICANT WEATHER AND/OR OBSTRUCTIONS TO VISIBILITY NCZ015>017-031-032-045>047-102-103-260500- NORTH COAST CITY SKY/WX TMP DP RH WIND PRES REMARKS EDENTON CLOUDY 62 54 75 CALM 30.25F ELIZABETH CITY PTCLDY 60 52 74 SW10 30.25S KITTY HAWK NOT AVBL MANTEO CLOUDY 56 52 85 SW5 30.27S $$ NCZ045>047-081-094-103-104-260500- CENTRAL COAST CITY SKY/WX TMP DP RH WIND PRES REMARKS FRISCO PTCLDY 63 55 75 W5 30.28S HAZE $$ NCZ095-097-098-100-101-260500- SOUTHERN COAST CITY SKY/WX TMP DP RH WIND PRES REMARKS BEAUFORT PTCLDY 60 57 89 CALM 30.27F CEDAR ISLAND NOT AVBL JACKSONVILLE PTCLDY 58 56 93 CALM 30.26F PINEY ISLAND PTCLDY N/A N/A N/A S5 30.27F WILMINGTON CLOUDY 61 56 83 SE3 30.26S $$ NCZ011>013-027>030-043-044-078>080-089-090>093-098-260500- COASTAL PLAIN CITY SKY/WX TMP DP RH WIND PRES REMARKS AHOSKIE N/A 61 52 72 S3 30.24 CLINTON CLOUDY 59 54 84 CALM 30.26S ELIZABETHTOWN PTCLDY 59 54 82 SE3 30.25S GOLDSBORO MOCLDY 62 55 79 CALM 30.24S GREENVILLE MOCLDY 63 55 77 S8 30.26S HAVELOCK NOT AVBL KENANSVILLE MOCLDY 55 50 82 CALM 30.26F KINSTON MOCLDY 60 54 80 S5 30.26F NEW BERN CLOUDY 56 54 93 CALM 30.28S RICHLANDS PTCLDY 55 53 93 CALM 30.27S ROCKY MOUNT CLOUDY 61 53 75 S6 30.24S WASHINGTON CLOUDY 60 54 79 S3 30.26F WHITEVILLE CLOUDY 60 54 80 S3 30.25F $$ AMZ130-135-150-152-154-156-158-170-250-252-270-ANZ085-086-088-633-658-670-260500- MARINE OBSERVATIONS STATION/POSITION TIME TEMP WIND PRES WAVE SWELL AIR SEA DIR/SP/G HT/PER HT/PER (UTC) (F) (DEG/KT/KT) (MB) (FT/S) (FT/S) CHESAPEAKE LIGHT NOT AVBL 64 E VA BEACH 0350 53 49 210/ 10/ 12 1024.6 3/ 7 2/ 7 DUCK 0348 62 49 200/ 10/ 13 1023.9 2 E DUCK 0400 49 N/A 1/20 OREGON INLET 0348 210/ 9/ 11 N/A 13E OREGON INLT 0348 50 N/A 2/ 6 2/ 6 HATTERAS CG 0348 61 58 240/ 5/ 5 1024.9 DIAMOND BUOY 0350 69 76 180/ 16/ 19 1025.2 3/ 5 2/ 8 CAPE LOOKOUT 0400 67 190/ 7/ 8 1024.8 BEAUFORT LAB 0348 60 54 CALM / 1 1024.2 30 SE NEW RVR IN 0308 65 200/ 2/ 4 1025.3 30 SE NEW RVR IN 0343 66 N/A 3/ 7 27 SE WRIGHTSVLE 0308 64 63 90/ 4/ 6 1024.7 5 SE WRIGHTSVLE 0308 62 59 160/ 8/ 10 1024.7 225 S CAPE HAT 0350 67 73 90/ 12/ 16 1026.5 4/ 8 3/ 8 41 SE CHARLESTON 0350 70 70 120/ 14/ 16 1023.5 5/ 8 3/ 8 $$

USA.gov is the U.S. government's official web portal to all federal, state and local government web resources and services.